CAPE
0 0 0 0 0 0 0 0 0 0 0 0 0 0 0 0 0 0 0 261 420 616 529 293 161 93 38 34 43 21 29 114 71 51 13 109 142 117 58 28 198 210 104 59
0 0 0 0 0 0 0 0 0 0 0 0 0 0 0 0 0 0 9 201 580 634 579 405 230 83 43 31 85 66 85 125 134 71 60 143 167 216 125 202 125 100 17 1
0 0 0 0 0 0 0 0 0 0 0 0 0 0 0 0 0 0 1 103 632 739 769 555 368 178 95 72 145 122 169 170 166 110 103 198 413 349 277 214 52 11 0 0
0 0 0 0 0 0 0 0 0 0 0 0 0 0 0 0 0 0 0 97 384 902 981 840 528 330 143 128 257 205 231 276 296 230 156 241 380 235 294 64 7 0 0 0
0 0 0 0 0 0 0 0 0 0 0 0 0 0 0 0 0 1 0 0 229 815 1095 1146 989 674 397 334 471 365 403 381 445 379 375 531 300 183 172 106 35 0 0 0
0 0 0 0 0 0 0 0 0 0 0 0 0 0 0 0 0 0 0 0 158 584 1184 1263 1383 1107 832 596 693 652 635 593 530 385 517 421 281 398 355 122 22 0 0 0
0 0 0 0 0 0 0 0 0 0 0 0 0 0 0 0 0 0 0 2 112 616 1037 1264 1499 1460 1331 1265 1062 1049 834 554 389 510 527 303 438 857 433 104 4 0 0 0
0 0 0 0 0 0 0 0 0 0 0 0 0 0 0 0 0 0 118 352 304 536 1020 1590 1561 1628 1541 1407 1285 1249 790 499 378 382 387 362 768 858 678 118 36 8 0 0
0 0 0 0 0 0 0 0 0 0 0 0 0 0 0 0 0 0 0 0 0 91 532 949 1468 1460 1588 1397 1349 1337 651 771 792 730 632 508 705 768 382 142 40 0 0 0
0 0 0 0 0 0 0 0 0 0 0 0 0 0 0 0 0 0 0 0 0 0 0 17 234 735 1216 1310 1469 1065 468 531 837 739 409 267 307 107 7 0 0 0 0 0
0 0 0 5 0 0 0 0 0 0 0 0 0 0 0 0 0 0 0 0 0 0 0 87 17 74 672 712 892 846 414 225 265 167 80 74 18 1 1 0 0 0 0 0
1 0 0 0 0 0 0 0 0 0 0 0 0 3 0 0 0 0 0 0 0 0 0 0 1 0 0 8 262 291 158 117 83 48 28 6 0 0 0 1 3 0 0 0
0 1 0 0 1 0 0 1 0 0 0 0 0 12 0 0 0 0 0 0 0 0 0 0 0 0 0 0 0 1 0 4 9 7 4 2 0 1 2 3 3 0 0 0
0 2 0 1 0 1 0 0 0 0 0 0 0 10 0 0 0 0 0 0 0 0 0 0 0 0 0 0 0 0 0 0 0 1 1 1 2 3 3 2 1 1 0 0
0 0 0 0 0 0 2 0 0 0 0 5 0 33 0 0 0 0 0 0 0 0 0 0 0 0 0 0 0 0 0 0 2 2 1 1 1 1 2 2 2 2 0 0
0 0 0 0 0 0 0 0 0 0 0 0 0 0 0 0 0 0 0 0 0 0 0 0 0 0 0 0 0 0 0 1 1 4 4 2 1 1 1 2 1 2 1 1
0 0 0 0 0 0 0 0 0 0 0 0 0 0 0 0 0 0 0 0 0 0 0 0 0 0 0 0 0 0 0 0 1 0 2 1 2 2 1 2 1 3 2 3
0 0 0 0 0 0 0 0 0 0 0 0 0 0 0 0 0 0 0 0 0 0 0 0 0 0 0 0 0 0 0 0 0 1 0 0 1 2 1 2 1 1 1 0
0 0 0 0 0 0 0 0 0 0 0 0 0 0 0 0 0 0 0 0 0 0 0 0 0 0 0 0 0 0 0 0 0 0 0 0 0 1 2 1 2 2 1 0
0 0 0 0 1 0 0 0 0 0 0 0 0 0 0 0 0 0 0 0 0 0 0 0 0 0 0 0 0 0 0 0 0 0 0 0 0 0 2 1 1 1 1 0
0 2 1 1 3 0 0 0 0 0 0 2 7 0 0 0 0 0 0 0 0 0 0 0 0 0 0 0 0 0 0 0 0 0 0 0 1 0 0 1 1 1 1 1
0 1 1 5 1 1 0 0 0 2 1 1 4 1 0 0 0 0 0 0 0 0 0 0 0 0 0 0 0 0 0 0 0 0 0 0 3 0 0 1 1 0 0 0
0 1 0 0 11 3 0 0 0 2 9 0 0 0 0 0 0 0 0 0 0 0 0 0 0 0 0 0 0 0 0 0 0 0 0 0 1 6 0 0 0 1 0 0
0 0 0 2 0 0 0 0 0 1 0 0 0 0 0 0 0 0 0 0 0 0 0 0 0 0 0 0 0 0 0 0 0 0 0 0 1 0 0 0 0 0 0 1
6 0 0 4 4 2 0 0 0 3 1 0 0 0 0 0 0 0 0 0 0 0 0 0 0 0 0 0 0 0 0 0 0 0 0 0 0 0 5 1 0 0 0 0
1 0 0 1 0 0 0 0 0 4 3 3 0 0 0 0 0 0 0 0 0 0 0 0 0 0 0 0 0 0 0 0 0 0 0 0 0 0 0 2 6 0 0 0
CIN
0 0 0 0 0 0 0 0 0 0 0 0 0 0 0 0 0 0 0 -18 -44 -45 -85 -164 -228 -222 -271 -312 -340 -370 -329 -233 -267 -264 -250 -120 -77 -75 -94 -110 -19 -9 -49 -99
0 0 0 0 0 0 0 0 0 0 0 0 0 0 0 0 0 0 -6 -2 -39 -42 -26 -73 -165 -218 -259 -282 -299 -316 -293 -233 -220 -236 -207 -86 -57 -42 -78 -42 -67 -75 -125 -32
0 0 0 0 0 0 0 0 0 0 0 0 0 0 0 0 0 0 -1 -7 -5 -56 -60 -41 -120 -202 -262 -246 -238 -263 -227 -194 -164 -158 -151 -72 -17 -17 -26 -31 -118 -136 0 0
0 0 0 0 0 0 0 0 0 0 0 0 0 0 0 0 0 0 -1 -3 -6 -2 -23 -45 -97 -154 -254 -230 -173 -183 -191 -143 -94 -100 -113 -92 -41 -56 -23 -82 -146 0 0 0
0 0 0 0 0 0 0 0 0 0 0 0 0 0 0 0 0 -3 0 0 -3 -3 -5 -24 -75 -126 -201 -170 -164 -170 -172 -121 -54 -94 -67 -40 -41 -55 -27 -68 -162 0 0 0
0 0 0 0 0 0 0 0 0 0 0 0 0 0 0 0 0 0 0 0 -3 -3 -5 -3 -8 -36 -66 -96 -111 -47 -121 -125 -62 -57 -52 -62 -69 -4 -3 -83 -175 0 0 0
0 0 0 0 0 0 0 0 0 0 0 0 0 0 0 0 0 0 0 -2 -6 -4 -4 -5 -6 -5 -7 -13 -24 -27 -41 -52 -89 -52 -83 -90 -51 -8 -5 -98 -192 -1 0 0
0 0 0 0 0 0 0 0 0 0 0 0 0 0 0 0 0 0 -120 -63 -15 -3 -3 -9 -8 -3 -6 -1 -2 -2 -26 -5 -54 -58 -103 -124 -7 -11 -1 -102 -153 -245 0 0
0 0 0 0 0 0 0 0 0 0 0 0 0 0 0 0 0 0 0 0 0 -178 -85 -15 -8 -9 -2 0 -1 -5 -72 -20 -10 -9 -45 -104 -28 -22 -76 -102 -108 0 0 0
0 0 0 0 0 0 0 0 0 0 0 0 0 0 0 0 0 0 0 0 0 0 0 -158 -140 -36 -5 -7 -2 -30 -93 -59 -5 -28 -78 -111 -127 -185 -267 0 0 0 0 0
0 0 -4 -9 0 0 0 0 0 0 0 0 0 0 -13 0 0 0 0 0 0 0 0 -209 -258 -213 -12 -44 -34 -24 -118 -149 -139 -179 -232 -263 -333 0 0 0 0 0 0 0
0 0 0 0 0 0 0 0 0 0 0 0 0 -19 0 0 0 0 0 0 0 0 0 0 0 0 0 -227 -182 -137 -174 -128 -203 -297 -435 -430 0 0 0 0 0 0 0 0
0 0 0 -1 -2 0 0 -13 0 0 0 -7 0 -46 0 0 0 0 0 0 0 0 0 0 0 0 0 0 0 0 0 -265 -314 -349 -401 0 0 0 0 0 0 0 0 0
0 0 0 0 0 0 0 0 0 0 0 0 0 -106 0 0 0 0 0 0 0 0 0 0 0 0 0 0 0 0 0 0 0 0 0 0 0 0 0 0 0 0 0 0
0 0 0 0 0 0 0 0 0 0 0 -9 0 -31 0 0 0 0 0 0 0 0 0 0 0 0 0 0 0 0 -1 0 0 0 0 0 0 0 0 0 0 0 0 0
0 0 0 0 0 0 0 0 0 0 0 0 0 0 0 0 0 0 0 0 0 0 0 0 0 0 0 0 0 0 0 -1 -4 0 0 0 0 0 0 0 0 0 0 0
0 0 0 0 0 0 0 0 0 0 0 0 0 0 0 0 0 0 0 0 0 0 0 0 0 0 0 0 0 0 0 0 -1 0 0 0 0 0 0 0 0 0 0 0
0 0 0 0 0 0 0 0 0 0 0 0 0 0 0 0 0 0 0 0 0 0 0 0 0 0 0 0 0 0 0 0 -1 -1 0 0 0 0 0 0 0 0 0 0
0 0 0 0 0 0 0 0 0 0 0 0 0 0 0 0 0 0 0 0 0 0 0 0 0 0 0 0 0 0 0 0 0 0 -1 0 -3 0 0 0 0 0 0 0
0 0 0 0 -2 0 0 0 0 0 0 0 -1 -1 0 0 0 0 0 0 0 0 0 0 0 0 0 0 0 0 0 0 0 0 0 0 0 -2 0 0 0 0 0 0
-12 -9 -6 -7 -3 0 0 0 0 0 0 -4 -1 -7 0 -1 0 0 0 0 0 0 0 0 0 0 0 0 0 0 0 0 0 0 0 -2 -2 0 0 0 0 0 0 0
-4 -13 -13 -10 -10 -3 0 0 0 -10 0 -2 -2 -2 -1 0 0 0 0 0 0 0 0 0 0 0 0 0 0 0 0 0 0 0 0 0 -1 0 0 0 0 0 0 0
-1 -4 -15 -21 -6 -19 -1 0 0 -3 -2 0 0 0 0 0 0 0 0 0 0 0 0 0 0 0 0 0 0 0 0 0 0 0 0 0 -2 -1 -3 0 0 0 0 0
-8 0 -2 -13 -3 0 0 -3 -2 -9 0 0 0 0 0 0 0 0 0 0 0 0 0 0 0 0 0 0 0 0 0 0 0 0 0 0 -2 0 -4 0 0 0 0 0
-6 -12 -9 -10 -11 -18 -9 0 -5 -21 -16 0 -4 -4 0 0 0 0 0 0 0 0 0 0 0 0 0 0 0 0 0 0 0 0 0 0 0 -3 -3 -9 0 0 0 0
-8 -4 0 -11 -9 0 0 0 -13 -25 -13 -14 -5 0 0 0 0 0 0 0 0 0 0 0 0 0 0 0 0 0 0 0 0 0 0 0 0 0 -1 -1 -2 0 0 0
Wind_Speed
31 36 39 32 30 32 30 28 31 30 23 27 35 41 35 38 32 27 28 23 26 21 21 21 19 26 22 18 16 16 15 13 12 11 11 10 10 9 9 7 6 5 5 5
34 42 35 34 35 37 39 35 31 28 20 27 29 37 40 34 39 30 27 23 25 24 22 23 22 20 20 19 18 17 16 15 15 13 13 13 12 10 9 8 7 7 6 6
44 37 35 38 40 37 38 34 32 30 22 26 31 38 35 38 35 32 34 26 23 26 24 25 23 23 22 23 22 19 18 18 19 18 16 14 13 11 12 11 11 10 9 7
50 43 33 41 41 35 38 31 32 28 27 33 25 39 32 33 35 33 30 32 25 24 25 24 24 25 24 22 23 24 20 19 22 21 19 16 16 16 17 15 15 12 10 9
54 47 40 40 39 35 38 28 32 32 32 34 30 35 35 23 35 31 28 28 31 24 24 24 23 20 25 24 20 25 25 22 20 25 23 19 19 19 18 17 14 13 12 11
52 39 45 40 37 35 31 32 28 32 32 40 39 31 34 30 26 30 29 25 26 26 25 25 24 24 23 23 24 23 26 23 22 19 20 21 22 24 21 19 17 15 13 12
43 50 36 34 38 35 33 31 31 33 35 39 32 36 30 14 16 17 19 26 22 25 26 26 24 24 26 25 24 23 23 25 22 20 17 18 18 27 23 20 18 15 12 12
39 46 38 38 43 33 33 32 33 34 34 33 29 33 27 15 14 11 12 15 14 19 24 23 24 23 23 25 26 26 25 31 30 23 22 21 18 26 26 21 16 15 14 14
28 39 32 33 38 38 32 40 33 33 36 34 27 22 14 16 15 12 11 14 17 18 21 15 22 26 23 23 22 24 24 26 20 22 20 16 17 20 19 20 17 15 16 16
27 33 29 30 29 40 38 36 38 43 40 39 31 28 28 22 18 14 12 12 14 17 20 22 22 23 23 25 21 19 22 21 21 19 17 16 17 14 16 18 20 16 18 17
30 29 29 28 34 35 37 37 43 43 36 37 36 27 14 17 15 14 13 10 11 12 16 18 19 20 21 20 21 22 19 19 20 17 18 18 16 14 15 14 15 12 11 11
26 34 38 31 27 33 34 40 42 44 40 42 37 18 4 12 10 10 10 8 8 8 10 14 15 16 17 18 21 23 24 25 23 19 17 18 16 17 17 18 15 11 10 10
25 28 44 44 32 31 33 31 33 38 45 42 42 24 12 11 11 10 8 6 6 7 8 9 12 14 16 17 19 20 22 23 20 18 18 19 17 17 18 17 15 13 10 9
21 25 31 39 36 32 36 33 31 34 41 40 41 21 19 15 13 11 10 7 7 7 8 8 9 11 15 17 18 19 20 22 22 21 20 20 18 18 19 16 13 13 11 8
26 31 32 34 36 37 39 40 37 38 40 41 40 23 24 18 15 14 10 8 7 7 7 8 9 10 11 14 17 18 18 19 20 21 21 22 21 20 18 17 15 13 11 11
29 32 34 38 35 36 41 42 42 41 37 37 35 16 13 17 16 15 14 12 10 10 10 10 11 12 13 15 17 18 18 18 17 19 21 21 20 20 19 17 16 15 13 12
36 31 33 37 28 34 43 40 42 40 35 34 35 26 19 19 18 17 17 15 14 13 13 13 14 15 16 17 18 18 17 16 16 16 18 19 19 19 18 17 17 17 16 14
38 35 33 38 34 42 32 26 29 35 36 31 27 22 22 20 18 16 16 16 16 16 16 16 16 16 17 18 18 17 16 15 16 18 17 19 20 20 19 18 18 18 17 15
33 36 38 37 37 39 40 27 28 33 37 34 31 25 23 21 19 21 18 17 17 17 18 18 18 18 17 18 18 17 17 17 19 20 20 20 20 20 19 18 18 17 16 15
27 31 40 41 42 40 24 24 24 27 41 27 27 29 28 27 32 26 21 20 19 19 19 20 20 19 19 19 19 19 19 19 20 21 22 23 20 21 21 19 18 17 16 16
37 35 41 43 46 45 35 24 24 35 31 22 25 25 25 28 26 23 21 23 23 24 23 23 22 22 22 22 22 23 22 23 24 24 24 23 23 22 20 20 18 17 17 17
41 41 42 44 49 54 34 29 36 26 22 22 21 21 23 24 25 25 26 26 26 27 26 26 26 25 25 25 25 26 26 26 26 27 26 26 25 24 21 21 20 19 19 19
45 41 46 41 36 25 24 29 24 24 26 25 25 24 25 27 30 30 31 30 29 29 29 29 29 29 29 28 27 29 28 27 28 29 29 29 28 26 23 21 21 22 21 22
54 49 48 45 44 45 41 30 31 29 29 31 30 31 31 33 34 36 35 35 33 32 32 32 32 33 33 31 31 31 31 30 30 31 31 30 30 30 26 23 22 22 23 24
43 42 43 50 49 48 47 44 42 41 37 37 39 38 37 39 40 40 39 37 36 35 35 35 35 36 36 34 34 33 34 33 34 34 33 33 31 31 31 31 26 25 24 23
42 46 48 50 47 46 47 45 44 44 45 46 42 41 41 42 44 41 41 40 39 39 38 38 38 38 37 37 37 35 34 35 36 37 35 33 33 32 32 33 34 31 30 27
Wind_Direction
240 241 239 237 241 252 259 259 259 262 262 252 255 253 251 249 250 247 248 241 242 231 227 224 226 232 230 220 216 211 212 214 212 225 232 239 242 250 260 263 279 287 310 329
240 240 240 246 248 250 251 259 257 261 262 259 261 257 252 249 248 248 245 240 239 236 228 225 225 221 221 221 219 213 213 216 223 232 237 244 245 252 258 270 279 284 296 310
238 246 245 244 245 246 247 250 255 257 259 265 264 259 253 249 248 248 246 244 237 235 232 230 224 228 228 228 224 219 219 223 229 237 240 245 252 258 261 266 273 276 286 303
240 241 244 241 244 244 247 248 254 256 258 257 258 258 255 252 249 242 243 246 239 232 233 229 226 230 227 225 225 230 225 224 233 238 241 241 246 253 260 262 267 273 281 294
237 238 240 242 241 243 247 249 251 254 258 260 259 257 260 251 246 239 240 244 247 236 230 229 225 223 229 229 219 227 228 229 232 240 243 244 251 257 262 263 266 272 279 286
239 243 243 244 245 244 248 252 250 253 256 253 251 255 261 258 246 245 246 237 243 244 235 233 232 234 231 228 230 229 230 227 233 230 241 244 251 256 259 262 263 269 276 283
239 237 244 244 241 241 240 240 243 245 246 249 251 252 254 274 258 258 260 246 239 240 240 236 231 235 237 232 229 228 228 235 232 234 236 249 254 260 259 260 263 265 272 281
239 236 237 241 238 236 232 232 237 242 244 249 257 247 251 258 266 263 263 260 261 246 241 237 242 234 236 237 234 233 234 240 243 239 242 248 259 257 257 263 265 265 271 280
256 243 237 242 241 237 235 236 237 254 255 252 243 255 267 258 255 257 258 258 259 258 251 255 240 242 244 242 236 237 243 242 240 242 240 234 249 260 258 265 265 268 276 280
261 249 257 234 243 240 242 241 240 243 248 247 244 242 254 246 247 250 255 260 262 262 257 254 254 254 249 249 245 244 249 249 248 244 238 242 245 251 254 261 267 271 274 283
264 254 253 252 239 238 237 245 242 245 249 249 249 249 234 234 238 244 253 263 270 270 262 257 261 261 260 259 252 252 254 258 252 248 251 250 247 251 257 257 265 262 270 273
273 254 247 254 257 249 252 245 244 242 242 247 250 267 209 221 242 246 253 264 275 281 277 267 260 264 265 264 261 258 261 259 258 254 257 254 251 253 258 263 258 256 259 270
287 262 246 248 256 249 249 252 254 252 243 244 245 249 239 243 242 242 247 263 278 286 289 285 272 268 268 269 270 270 268 265 265 265 261 258 254 255 258 256 257 259 262 269
293 269 257 248 254 261 249 253 255 252 242 243 248 232 237 238 239 239 246 263 278 288 292 294 289 281 277 277 276 274 273 271 270 268 265 264 262 263 265 258 249 254 259 258
289 266 267 263 263 261 256 253 253 249 247 245 246 247 234 234 241 245 248 257 272 286 296 297 296 296 294 286 284 279 279 278 273 271 270 270 269 270 269 262 255 253 258 264
286 269 272 265 266 261 258 254 252 251 252 251 252 259 215 236 245 248 251 256 264 276 288 295 297 297 299 298 295 291 285 282 279 275 276 277 276 274 272 266 260 255 259 265
275 271 271 264 268 265 258 253 249 249 251 252 249 243 246 250 249 251 255 260 265 275 284 291 296 299 301 303 303 300 295 288 287 288 287 286 283 280 276 271 263 261 262 262
266 268 269 264 269 255 261 265 260 253 253 254 254 250 250 248 252 259 263 263 269 276 282 289 293 298 303 304 307 308 307 301 295 295 294 293 290 285 281 275 269 266 264 262
267 265 263 259 260 265 266 263 260 255 254 253 253 255 258 255 257 261 267 270 273 278 282 287 293 296 299 302 302 305 309 305 302 298 297 295 294 290 286 281 276 268 264 261
276 271 261 260 258 255 270 270 274 269 257 254 253 255 257 260 256 259 261 267 272 279 282 284 288 291 295 299 300 301 301 303 304 303 296 296 295 293 290 287 282 274 265 261
269 265 260 260 258 259 269 271 273 259 258 265 260 257 257 259 261 264 267 269 273 276 279 282 285 284 288 293 296 295 297 298 300 301 298 296 294 293 293 292 288 279 268 265
268 266 263 263 260 257 273 268 263 269 271 270 269 265 266 266 267 268 270 271 273 274 276 279 281 283 287 289 292 291 292 296 297 298 298 295 292 291 291 292 288 283 274 268
270 271 266 266 265 279 288 277 278 273 271 266 268 269 268 270 270 271 271 272 273 275 278 279 279 281 284 286 288 287 291 294 295 294 295 296 292 291 290 289 288 282 277 271
270 270 270 270 266 268 272 279 277 274 272 270 271 270 272 272 273 270 270 271 274 277 278 280 281 281 281 284 285 286 288 290 291 291 292 293 293 292 290 287 286 283 277 274
275 276 271 268 267 270 270 273 274 273 273 271 272 275 275 276 274 272 270 273 274 277 278 280 280 280 281 283 284 286 286 287 287 288 289 290 290 291 288 285 283 280 279 274
276 273 271 268 271 276 274 274 276 274 271 273 272 274 275 276 276 275 272 274 274 275 278 278 278 280 281 282 283 285 287 286 286 284 285 286 287 288 287 286 281 280 281 275